Sierra Vista, AZ

1:23 AM MST on December 15, 2019 (GMT -0700)
Sierra Vista Municipal-Libby Army Air Field

Weather History for KFHU - July, 2019

Change the Weather History Date:

Tuesday, July 16, 2019

  Actual Average Record
Temperature  
Mean Temperature 86 °F -  
Max Temperature 96 °F 88 °F 99 °F (1988)
Min Temperature 76 °F 69 °F 62 °F (1984)
Cooling Degree Days 21    
Growing Degree Days 36 (Base 50)    
Moisture  
Dew Point 50 °F    
Average Humidity 31    
Maximum Humidity 44    
Minimum Humidity 19    
Precipitation  
Precipitation 0.00 in - - ()
Sea Level Pressure  
Sea Level Pressure 29.87 in    
Wind  
Wind Speed 10 mph (WSW)    
Max Wind Speed 28 mph    
Max Gust Speed 33 mph    
Visibility 10 miles    
Events Rain , Thunderstorm    
Averages and records for this station are not official NWS values.
T = Trace of Precipitation, MM = Missing Value Source: NWS Daily Summary

Daily Weather History Graph

Daily Weather History Graph

Search for Another Location

Airport or City:

Astronomy

Jul. 16, 2019 Rise Set
Actual Time 5:27 AM MST 7:27 PM MST
Civil Twilight 5:00 AM MST 7:54 PM MST
Nautical Twilight 4:26 AM MST 8:27 PM MST
Astronomical Twilight 3:51 AM MST 9:03 PM MST
Moon 7:35 PM MST (7/16) 5:09 AM MST (7/16)
Length of Visible Light 14h 54m
Length of Day
13h 59m
Full, 100% of the Moon is Illuminated
Jul 16
Full
Jul 16
Full
Jul 24
Last Quarter
Jul 31
New
Aug 7
First Quarter

Hourly Weather History & Observations

Time (MST) Temp. Heat Index Dew Point Humidity Pressure Visibility Wind Dir Wind Speed Gust Speed Precip Events Conditions
12:58 AM 77.9 °F - 48.9 °F 36% 29.83 in 10.0 mi West 10.4 mph - N/A   Clear
1:46 AM 78.8 °F - 50.0 °F 36% 29.81 in 10.0 mi West 8.1 mph - N/A   Clear
1:58 AM 79.2 °F - 49.8 °F 36% 29.81 in 10.0 mi WSW 9.2 mph - N/A   Clear
2:58 AM 78.3 °F - 49.3 °F 36% 29.81 in 10.0 mi WSW 9.2 mph - N/A   Clear
3:58 AM 78.3 °F - 49.1 °F 36% 29.81 in 10.0 mi WSW 8.1 mph - N/A   Clear
4:57 AM 77.0 °F - 48.2 °F 36% 29.84 in 10.0 mi WSW 6.9 mph - N/A   Clear
4:58 AM 77.5 °F - 48.4 °F 36% 29.84 in 10.0 mi WSW 8.1 mph - N/A   Clear
5:58 AM 77.5 °F - 49.1 °F 37% 29.85 in 10.0 mi WSW 6.9 mph - N/A   Clear
6:58 AM 84.2 °F - 51.1 °F 32% 29.85 in 10.0 mi West 4.6 mph - N/A   Clear
7:49 AM 86.0 °F - 50.0 °F 29% 29.87 in 10.0 mi Calm Calm - N/A   Clear
7:58 AM 87.1 °F - 49.1 °F 27% 29.87 in 10.0 mi Calm Calm - N/A   Clear
8:58 AM 89.6 °F - 50.2 °F 26% 29.89 in 10.0 mi Calm Calm - N/A   Clear
9:58 AM 91.6 °F - 48.0 °F 22% 29.88 in 10.0 mi Calm Calm - N/A   Clear
10:58 AM 94.8 °F - 47.8 °F 20% 29.87 in 10.0 mi Calm Calm - N/A   Clear
11:58 AM 92.8 °F - 46.0 °F 20% 29.86 in 9.0 mi SW 24.2 mph - N/A Thunderstorm Thunderstorm
12:13 PM 95.0 °F - 48.2 °F 20% 29.86 in 10.0 mi WSW 18.4 mph - N/A   Mostly Cloudy
12:28 PM 96.8 °F - 48.2 °F 19% 29.86 in 10.0 mi West 18.4 mph - N/A   Mostly Cloudy
12:31 PM 95.0 °F - 48.2 °F 20% 29.86 in 10.0 mi SW 16.1 mph 21.9 mph N/A Thunderstorm Thunderstorm
12:46 PM 87.8 °F - 51.8 °F 29% 29.87 in 10.0 mi SW 21.9 mph - N/A   Mostly Cloudy
12:58 PM 85.8 °F - 51.6 °F 31% 29.87 in 9.0 mi SSW 19.6 mph - N/A Thunderstorm Mostly Cloudy
1:13 PM 84.2 °F - 51.8 °F 33% 29.87 in 9.0 mi SSW 25.3 mph 31.1 mph N/A Thunderstorm Thunderstorm
1:21 PM 84.2 °F - 51.8 °F 33% 29.86 in 8.0 mi SSW 27.6 mph 33.4 mph N/A Rain , Thunderstorm Light Thunderstorms and Rain
1:51 PM 80.6 °F 80.3 °F 53.6 °F 39% 29.86 in 8.0 mi SW 18.4 mph - N/A Thunderstorm Thunderstorm
1:52 PM 80.6 °F 80.3 °F 53.6 °F 39% 29.86 in 8.0 mi SW 18.4 mph - N/A   Mostly Cloudy
1:58 PM 78.8 °F - 55.4 °F 44% 29.87 in 9.0 mi SW 18.4 mph - 0.00 in Thunderstorm Thunderstorm
2:13 PM 80.6 °F 80.3 °F 53.6 °F 39% 29.86 in 8.0 mi WSW 11.5 mph - N/A Thunderstorm Overcast
2:58 PM 83.1 °F - 51.3 °F 33% 29.85 in 9.0 mi WSW 18.4 mph - N/A   Mostly Cloudy
3:58 PM 88.0 °F - 49.3 °F 26% 29.83 in 10.0 mi West 15.0 mph - N/A   Mostly Cloudy
4:58 PM 89.8 °F - 46.9 °F 23% 29.82 in 10.0 mi West 13.8 mph - N/A   Overcast
5:58 PM 89.2 °F - 48.4 °F 24% 29.82 in 10.0 mi West 4.6 mph - N/A   Overcast
6:11 PM 89.6 °F - 50.0 °F 26% 29.80 in 10.0 mi West 3.5 mph - N/A   Partly Cloudy
6:58 PM 87.3 °F - 51.1 °F 29% 29.80 in 10.0 mi NW 6.9 mph - N/A   Mostly Cloudy
7:28 PM 84.2 °F - 51.8 °F 33% 29.82 in 10.0 mi WNW 3.5 mph - N/A   Clear
7:58 PM 83.3 °F 82.2 °F 54.3 °F 37% 29.82 in 10.0 mi West 13.8 mph - N/A   Clear
8:19 PM 82.4 °F - 51.8 °F 35% 29.84 in 10.0 mi West 8.1 mph - N/A   Clear
8:58 PM 82.0 °F - 51.4 °F 34% 30.10 in 10.0 mi WSW 10.4 mph - N/A   Scattered Clouds
9:58 PM 81.3 °F - 50.2 °F 34% 30.11 in 10.0 mi South 4.6 mph - N/A   Clear
10:58 PM 76.5 °F - 52.2 °F 43% 30.12 in 10.0 mi West 6.9 mph - N/A   Clear
11:58 PM 78.4 °F - 50.7 °F 38% 30.11 in 10.0 mi West 8.1 mph - N/A   Clear